FW4559 Weather Reports


time (UTC)temp
F
wind
direction
speed
knots
gust
knots
rain 1hr
in
rain 24hr
in
rain mn
in
humidity
%
barometer
mb
20200531081606 57 333 0.9 4.3 0.00 0.01 0.00 85 1016.1
20200531081029 57 321 0.9 5.2 0.00 0.01 0.00 85 1016.0
20200531080537 57 308 0.9 5.2 0.00 0.01 0.00 85 1015.9
20200531080111 57 328 1.7 5.2 0.00 0.01 0.00 85 1015.9
20200531075522 57 304 1.7 6.1 0.00 0.01 0.00 85 1015.9
20200531075046 57 318 1.7 6.1 0.00 0.01 0.00 85 1016.0
20200531074559 57 318 1.7 4.3 0.00 0.01 0.00 85 1015.8
20200531074022 57 326 0.0 3.5 0.00 0.01 0.00 85 1015.8
20200531073522 57 328 0.0 1.7 0.00 0.01 0.00 86 1015.8
20200531073022 57 352 0.0 3.5 0.00 0.01 0.00 86 1015.8
20200531072520 57 335 0.0 3.5 0.00 0.01 0.00 85 1015.9
20200531072020 57 341 0.9 4.3 0.00 0.01 0.00 85 1015.9
20200531071541 57 335 0.0 6.1 0.00 0.01 0.00 85 1015.9
20200531071022 58 305 1.7 6.1 0.00 0.01 0.00 85 1016.0
20200531070539 58 322 0.0 7.0 0.00 0.01 0.00 84 1016.0
20200531070039 58 340 0.0 7.0 0.00 0.01 0.00 84 1016.0
20200531065518 58 309 2.6 6.1 0.00 0.01 0.00 84 1016.1
20200531065018 58 317 1.7 6.1 0.00 0.01 0.00 84 1016.1
20200531064519 58 335 1.7 3.5 0.00 0.01 0.00 85 1016.1
20200531064017 57 321 0.0 2.6 0.00 0.01 0.00 86 1016.1
20200531063517 57 330 0.0 3.5 0.00 0.01 0.00 87 1016.2
20200531063044 56 332 0.0 3.5 0.00 0.01 0.00 87 1016.1
20200531062516 56 342 0.0 0.0 0.00 0.01 0.00 87 1016.2
20200531062016 56 331 0.0 0.0 0.00 0.01 0.00 87 1016.2
20200531061526 56 333 0.0 0.0 0.00 0.01 0.00 87 1016.1
20200531061016 56 333 0.0 0.0 0.00 0.01 0.00 86 1016.1
20200531060515 57 306 0.0 0.0 0.00 0.01 0.00 86 1016.1
20200531060051 57 293 0.0 3.5 0.00 0.01 0.00 85 1016.1
20200531055521 57 316 0.9 3.5 0.00 0.01 0.00 85 1016.1
20200531055022 57 303 0.9 5.2 0.00 0.01 0.00 84 1016.1
20200531054517 58 331 0.9 5.2 0.00 0.01 0.00 84 1016.0
20200531054018 57 343 0.0 5.2 0.00 0.01 0.00 85 1016.0
20200531053514 57 311 0.9 4.3 0.00 0.01 0.00 85 1016.1
20200531053024 57 319 0.0 1.7 0.00 0.01 0.00 86 1016.0
20200531052512 56 319 0.9 1.7 0.00 0.01 0.00 86 1016.1
20200531052030 56 332 0.0 2.6 0.00 0.01 0.00 86 1016.2
20200531051513 56 317 0.0 0.0 0.00 0.01 0.00 86 1016.3
20200531051011 56 309 0.0 0.0 0.00 0.01 0.00 86 1016.1
20200531050511 56 297 0.0 0.0 0.00 0.01 0.00 86 1016.2
20200531050017 56 258 0.0 0.0 0.00 0.01 0.00 85 1016.1
20200531045511 57 258 0.0 0.0 0.00 0.01 0.00 84 1016.1
20200531045008 57 250 0.0 0.0 0.00 0.01 0.00 83 1016.1
20200531044510 58 323 0.0 0.0 0.00 0.01 0.00 82 1016.2
20200531044010 58 298 0.0 0.0 0.00 0.01 0.00 82 1016.2
20200531043510 58 329 0.0 0.0 0.00 0.01 0.00 82 1016.2
20200531043006 57 328 0.0 0.0 0.00 0.01 0.00 82 1016.1
20200531042505 57 311 0.0 0.0 0.00 0.01 0.00 82 1016.2
20200531042004 57 288 0.0 0.0 0.00 0.01 0.00 83 1016.2
20200531041510 57 277 0.0 0.0 0.00 0.01 0.00 83 1016.2
20200531041007 57 277 0.0 0.0 0.00 0.01 0.00 82 1016.2
20200531040506 58 251 0.0 0.0 0.00 0.01 0.00 81 1016.2
20200531040002 58 278 0.0 0.0 0.00 0.01 0.00 81 1016.3
20200531035503 58 321 0.0 0.9 0.00 0.01 0.01 81 1016.3
20200531035103 57 319 0.0 1.7 0.00 0.01 0.01 82 1016.2
20200531034603 57 309 0.0 1.7 0.00 0.01 0.01 82 1016.2
20200531034102 57 321 0.0 0.0 0.00 0.01 0.01 81 1016.2
20200531033611 58 321 0.0 0.0 0.00 0.01 0.01 81 1016.0
20200531033149 58 320 0.0 0.0 0.00 0.01 0.01 80 1016.0
20200531032607 58 334 0.0 2.6 0.00 0.01 0.01 79 1016.0
20200531032133 58 334 0.0 2.6 0.00 0.01 0.01 79 1016.0
20200531031736 58 323 0.0 1.7 0.00 0.01 0.01 79 1016.0
20200531031059 58 241 0.0 1.7 0.00 0.01 0.01 79 1016.1
20200531030604 59 319 0.0 0.9 0.00 0.01 0.01 78 1016.0
20200531030132 59 320 0.0 0.9 0.00 0.01 0.01 77 1016.1
20200531025558 59 322 0.0 0.0 0.00 0.05 0.01 77 1016.0
20200531025059 59 264 0.0 0.0 0.00 0.05 0.01 76 1016.1
20200531024638 59 328 0.0 0.0 0.00 0.05 0.01 76 1016.0
20200531024058 60 300 0.0 0.0 0.00 0.05 0.01 75 1015.9
20200531023558 60 321 0.0 0.0 0.00 0.05 0.01 74 1015.9
20200531023138 60 321 0.0 0.0 0.00 0.05 0.01 72 1015.8
20200531022557 61 326 0.0 1.7 0.00 0.05 0.01 71 1015.8
20200531022057 61 326 0.0 0.9 0.00 0.05 0.01 71 1015.8
20200531021721 61 326 0.0 1.7 0.00 0.05 0.01 70 1015.6
20200531021057 62 326 0.0 1.7 0.00 0.05 0.01 70 1015.7
20200531020603 62 327 0.0 3.5 0.00 0.05 0.01 69 1015.6
20200531020116 61 330 0.0 2.6 0.00 0.05 0.01 69 1015.7
20200531015644 61 349 0.0 1.7 0.00 0.13 0.01 70 1015.7
20200531015056 61 6 0.0 1.7 0.00 0.13 0.01 70 1015.7
20200531014647 61 356 0.0 0.9 0.00 0.13 0.01 70 1015.7
20200531014105 61 356 0.0 0.9 0.00 0.13 0.01 70 1015.5
20200531013557 61 356 0.0 0.0 0.00 0.13 0.01 69 1015.4
20200531013116 62 356 0.0 0.0 0.00 0.13 0.01 67 1015.4
20200531012604 63 356 0.0 0.9 0.00 0.13 0.01 66 1015.4
20200531012056 63 356 0.0 0.9 0.00 0.13 0.01 65 1015.3
20200531011629 63 355 0.0 0.9 0.00 0.13 0.01 64 1015.3
20200531011109 64 356 0.0 4.3 0.00 0.13 0.01 64 1015.3
20200531010555 64 356 0.0 4.3 0.00 0.13 0.01 61 1015.2
20200531010206 65 326 0.0 5.2 0.00 0.13 0.01 61 1015.2
20200531005554 65 313 1.7 5.2 0.00 0.13 0.01 60 1015.1
20200531005057 65 324 0.9 5.2 0.00 0.13 0.01 59 1015.1
20200531004638 65 239 0.9 9.6 0.00 0.13 0.01 59 1015.1
20200531004106 66 288 1.7 9.6 0.00 0.13 0.01 58 1015.0
20200531003554 66 359 4.3 12.2 0.00 0.13 0.01 57 1014.9
20200531003129 66 330 4.3 12.2 0.00 0.13 0.01 57 1014.9
20200531002558 66 20 4.3 11.3 0.00 0.13 0.01 57 1014.9
20200531002053 66 15 4.3 11.3 0.00 0.13 0.01 57 1015.0
20200531001727 66 328 3.5 10.4 0.00 0.13 0.01 57 1015.0
20200531001103 66 298 4.3 10.4 0.00 0.13 0.01 56 1014.9
20200531000600 67 332 3.5 8.7 0.00 0.13 0.01 56 1014.9
20200531000217 67 329 1.7 7.0 0.00 0.13 0.01 56 1014.9
20200530235553 67 338 4.3 7.8 0.00 0.13 0.01 56 1014.9
20200530235114 67 329 3.5 7.0 0.00 0.13 0.01 56 1014.9
20200530234716 67 318 2.6 8.7 0.00 0.13 0.01 55 1014.7
20200530234052 68 338 2.6 7.0 0.00 0.13 0.01 54 1014.7
20200530233559 68 305 2.6 9.6 0.00 0.13 0.01 54 1014.7
20200530233303 68 329 3.5 9.6 0.00 0.13 0.01 53 1014.5
20200530232551 69 333 2.6 5.2 0.00 0.13 0.01 53 1014.5
20200530232050 69 332 2.6 9.6 0.00 0.13 0.01 53 1014.5
20200530231628 69 4 3.5 9.6 0.00 0.13 0.01 52 1014.4
20200530231051 69 282 1.7 7.0 0.00 0.13 0.01 53 1014.4
20200530230554 69 289 0.9 6.1 0.00 0.13 0.01 54 1014.4
20200530230118 69 333 1.7 11.3 0.00 0.13 0.01 52 1014.4
20200530225608 70 326 2.6 7.8 0.00 0.13 0.01 52 1014.2
20200530225050 70 331 4.3 9.6 0.00 0.13 0.01 50 1014.2
20200530224616 70 345 1.7 11.3 0.00 0.13 0.01 51 1014.2
20200530224100 70 316 2.6 13.9 0.00 0.13 0.01 51 1014.1
20200530223600 71 349 6.1 13.9 0.00 0.13 0.01 50 1014.0
20200530223144 71 299 3.5 11.3 0.00 0.13 0.01 51 1014.1
20200530222602 71 324 3.5 11.3 0.00 0.13 0.01 50 1013.9
20200530222059 71 335 6.1 13.9 0.00 0.13 0.01 50 1013.9
20200530221611 71 236 6.1 13.9 0.00 0.13 0.01 49 1014.0
20200530221048 72 302 1.7 10.4 0.00 0.13 0.01 51 1013.9
20200530220611 72 333 0.0 10.4 0.00 0.13 0.01 50 1014.0
20200530220056 72 20 2.6 8.7 0.00 0.13 0.01 51 1014.0
20200530215547 72 65 4.3 9.6 0.00 0.16 0.01 51 1014.0
20200530215055 72 189 4.3 13.0 0.00 0.16 0.01 49 1014.0
20200530214643 73 346 4.3 7.8 0.00 0.16 0.01 49 1014.0
20200530214057 72 288 3.5 9.6 0.00 0.16 0.01 50 1014.1
20200530213550 72 311 4.3 9.6 0.00 0.16 0.01 49 1014.1
20200530213111 72 323 4.3 12.2 0.00 0.16 0.01 50 1014.2
20200530212545 72 276 5.2 12.2 0.00 0.16 0.01 48 1014.1
20200530212045 73 334 3.5 12.2 0.00 0.16 0.01 49 1014.1
20200530211630 73 299 3.5 8.7 0.00 0.16 0.01 49 1014.0
20200530211044 74 143 0.0 11.3 0.00 0.16 0.01 50 1014.1
20200530210551 73 281 1.7 11.3 0.00 0.16 0.01 50 1014.0
20200530210145 73 234 3.5 10.4 0.00 0.16 0.01 50 1014.0
20200530205547 73 311 2.6 10.4 0.00 0.21 0.01 51 1014.0
20200530205048 73 300 3.5 7.8 0.00 0.21 0.01 50 1013.9
20200530204630 73 23 3.5 11.3 0.00 0.21 0.01 48 1013.9
20200530204047 73 356 6.1 12.2 0.00 0.21 0.01 48 1013.9
20200530203545 73 233 4.3 12.2 0.00 0.21 0.01 49 1013.9
20200530203043 74 339 3.5 9.6 0.00 0.21 0.01 50 1014.0
20200530202602 74 315 1.7 7.8 0.00 0.21 0.01 52 1013.8
20200530202042 73 307 2.6 13.0 0.00 0.21 0.01 48 1013.8
20200530201619 74 4 6.1 13.0 0.00 0.21 0.01 47 1014.0
20200530201041 74 331 4.3 11.3 0.00 0.21 0.01 47 1013.9
20200530200540 74 315 3.5 11.3 0.00 0.21 0.01 49 1013.9
20200530200100 75 296 2.6 9.6 0.00 0.21 0.01 48 1013.9
20200530195043 75 316 2.6 11.3 0.00 0.23 0.01 46 1014.0
20200530194542 75 286 2.6 11.3 0.00 0.23 0.01 48 1013.9
20200530194105 76 199 1.7 5.2 0.00 0.23 0.01 45 1014.0
20200530193539 75 215 1.7 8.7 0.00 0.23 0.01 45 1013.9
20200530193141 75 253 1.7 9.6 0.00 0.23 0.01 45 1013.9
20200530192539 74 134 0.9 10.4 0.00 0.23 0.01 48 1014.0
20200530192038 76 314 3.5 10.4 0.00 0.23 0.01 47 1014.0
20200530191602 76 198 0.9 8.7 0.00 0.23 0.01 46 1013.9
20200530191039 76 222 3.5 10.4 0.00 0.23 0.01 48 1014.0
20200530190538 76 225 2.6 8.7 0.00 0.23 0.01 46 1014.1
20200530190100 75 205 2.6 8.7 0.00 0.23 0.01 49 1014.2
20200530185534 74 349 1.7 11.3 0.00 0.23 0.01 50 1014.1
20200530185034 75 345 4.3 11.3 0.00 0.23 0.01 46 1014.2
20200530184539 76 246 1.7 8.7 0.00 0.23 0.01 44 1014.3
20200530184034 76 297 1.7 8.7 0.00 0.23 0.01 44 1014.3
20200530183538 76 208 0.9 7.0 0.00 0.23 0.01 46 1014.3
20200530183057 77 343 2.6 7.0 0.00 0.23 0.01 43 1014.4
20200530182532 77 258 1.7 9.6 0.00 0.23 0.01 47 1014.4
20200530182030 76 160 2.6 9.6 0.00 0.23 0.01 47 1014.4
20200530181540 76 297 2.6 9.6 0.00 0.23 0.01 44 1014.5
20200530181028 75 173 2.6 9.6 0.00 0.23 0.01 49 1014.5
20200530180533 75 328 1.7 7.0 0.00 0.23 0.01 50 1014.5
20200530180028 75 295 1.7 7.0 0.00 0.23 0.01 51 1014.5
20200530175539 74 217 0.0 7.8 0.00 0.23 0.01 53 1014.6
20200530175031 75 341 2.6 7.8 0.00 0.23 0.01 52 1014.6
20200530174539 75 206 0.9 6.1 0.00 0.23 0.01 54 1014.6
20200530174026 73 8 1.7 7.0 0.00 0.23 0.01 58 1014.8
20200530173525 72 342 3.5 11.3 0.00 0.23 0.01 57 1014.8
20200530173036 72 326 3.5 11.3 0.00 0.23 0.01 58 1014.9
20200530172525 73 300 2.6 7.0 0.00 0.23 0.01 56 1014.8
20200530172031 72 15 0.9 8.7 0.00 0.23 0.01 55 1014.9
20200530171629 73 336 4.3 8.7 0.00 0.23 0.01 52 1014.8
20200530171039 75 307 2.6 7.0 0.00 0.23 0.01 51 1014.8
20200530170523 76 127 0.0 4.3 0.00 0.23 0.01 52 1014.7
20200530170033 75 92 1.7 4.3 0.00 0.23 0.01 53 1014.8
20200530165521 73 254 0.0 4.3 0.00 0.23 0.01 55 1014.8
20200530165030 72 220 0.0 4.3 0.00 0.23 0.01 56 1014.8
20200530164541 72 262 0.9 9.6 0.00 0.23 0.01 57 1014.8
20200530164021 71 294 4.3 9.6 0.00 0.23 0.01 56 1014.8
20200530163521 72 347 5.2 9.6 0.00 0.23 0.01 55 1014.8
20200530163040 73 34 0.0 3.5 0.00 0.23 0.01 56 1014.9
20200530162520 74 226 0.0 5.2 0.00 0.23 0.01 55 1015.0
20200530162022 74 350 0.9 5.2 0.00 0.23 0.01 56 1015.1
20200530161556 74 331 0.9 6.1 0.00 0.23 0.01 54 1015.0
20200530161024 73 201 0.9 9.6 0.00 0.23 0.01 57 1015.1
20200530160522 73 238 1.7 11.3 0.00 0.23 0.01 55 1015.1
20200530160029 73 195 0.9 5.2 0.00 0.23 0.01 58 1015.2
20200530155518 72 359 2.6 8.7 0.00 0.25 0.01 55 1015.0
20200530155018 72 352 2.6 8.7 0.00 0.25 0.01 58 1015.2
20200530154536 72 269 1.7 7.8 0.00 0.25 0.01 56 1015.2
20200530154018 73 306 1.7 7.8 0.00 0.25 0.01 55 1015.2
20200530153549 74 340 1.7 7.0 0.00 0.25 0.01 53 1015.2
20200530153024 74 319 1.7 8.7 0.00 0.25 0.01 55 1015.3
20200530152516 74 332 2.6 8.7 0.00 0.25 0.01 54 1015.3
20200530152016 73 220 0.0 7.8 0.00 0.25 0.01 56 1015.3
20200530151525 73 319 2.6 7.8 0.00 0.25 0.01 57 1015.3
20200530151033 73 322 1.7 5.2 0.00 0.25 0.01 59 1015.3
20200530150515 73 279 0.9 3.5 0.00 0.25 0.01 60 1015.4
20200530150028 73 134 0.9 5.2 0.00 0.25 0.01 59 1015.4
20200530145514 72 301 0.0 7.0 0.00 0.25 0.01 63 1015.5
20200530145020 71 240 0.0 2.6 0.00 0.25 0.01 65 1015.5
20200530144517 70 43 0.0 3.5 0.00 0.25 0.01 68 1015.6
20200530144013 70 336 1.7 3.5 0.00 0.25 0.01 67 1015.5
20200530143514 71 133 0.0 0.0 0.00 0.25 0.01 65 1015.5
20200530143014 72 257 0.0 0.0 0.00 0.25 0.01 63 1015.6
20200530142514 73 333 0.0 0.0 0.00 0.25 0.01 63 1015.6
20200530142032 74 231 0.0 0.0 0.00 0.25 0.01 62 1015.7
20200530141016 74 243 0.0 0.0 0.00 0.25 0.01 62 1015.6
20200530140511 74 222 0.0 0.0 0.00 0.25 0.01 62 1015.6
20200530140016 74 250 0.0 0.0 0.00 0.25 0.01 66 1015.6
20200530135508 73 249 0.0 0.0 0.00 0.25 0.01 67 1015.7
20200530135007 72 293 0.0 3.5 0.00 0.25 0.01 69 1015.8
20200530134508 71 238 0.9 3.5 0.00 0.25 0.01 70 1015.8
20200530134006 71 235 0.0 3.5 0.00 0.25 0.01 70 1015.9
20200530133506 71 269 0.0 2.6 0.00 0.25 0.01 71 1016.0
20200530133004 70 240 0.0 1.7 0.00 0.25 0.01 74 1016.1
20200530132502 69 258 0.0 4.3 0.00 0.25 0.01 75 1016.1
20200530132003 69 266 0.9 4.3 0.00 0.25 0.01 76 1016.0
20200530131509 69 223 0.9 4.3 0.00 0.25 0.01 76 1016.1
20200530131106 69 240 0.0 3.5 0.00 0.25 0.01 79 1016.0
20200530130602 69 329 0.9 3.5 0.00 0.25 0.01 79 1016.1
20200530130140 69 238 0.0 2.6 0.00 0.25 0.01 77 1016.0
20200530125559 69 273 0.0 2.6 0.00 0.25 0.01 77 1016.1
20200530125058 69 220 0.0 2.6 0.00 0.25 0.01 79 1016.0
20200530124617 68 218 0.0 2.6 0.00 0.25 0.01 81 1016.1
20200530124108 67 206 0.0 2.6 0.00 0.25 0.01 83 1015.9
20200530123554 66 333 0.0 2.6 0.00 0.25 0.01 85 1016.0
20200530123102 66 254 0.0 0.9 0.00 0.25 0.01 87 1016.0
20200530122605 64 339 0.0 1.7 0.00 0.25 0.01 88 1016.0
20200530122056 64 339 0.0 3.5 0.00 0.25 0.01 88 1015.9
20200530121707 64 245 0.0 3.5 0.00 0.25 0.01 88 1016.0
20200530121054 64 341 0.9 2.6 0.00 0.25 0.01 87 1016.0
20200530120550 64 328 0.0 2.6 0.00 0.25 0.01 88 1016.0
20200530120121 64 341 0.0 0.0 0.00 0.25 0.01 92 1015.8
20200530115547 63 341 0.0 0.0 0.00 0.25 0.01 93 1015.7
20200530115058 61 341 0.0 0.0 0.00 0.25 0.01 92 1015.7
20200530114609 61 341 0.0 0.0 0.00 0.25 0.01 93 1015.7
20200530114111 61 341 0.0 0.0 0.00 0.25 0.01 92 1015.6
20200530113620 60 341 0.0 0.0 0.00 0.25 0.01 91 1015.7
20200530113054 60 341 0.0 0.0 0.00 0.25 0.01 90 1015.7
20200530112543 60 341 0.0 0.0 0.00 0.25 0.01 89 1015.8
20200530112043 59 341 0.0 0.0 0.00 0.25 0.01 89 1015.8
20200530111046 59 341 0.0 0.0 0.00 0.25 0.01 88 1015.9
20200530110542 58 342 0.0 0.0 0.00 0.25 0.01 88 1015.8
20200530110136 58 342 0.0 0.0 0.00 0.25 0.01 88 1015.8
20200530105547 58 347 0.0 0.0 0.00 0.25 0.01 88 1015.9
20200530105043 58 334 0.0 0.0 0.00 0.25 0.01 88 1015.8
20200530104612 58 351 0.0 0.0 0.00 0.25 0.01 88 1015.9
20200530104051 58 4 0.0 0.0 0.00 0.25 0.01 88 1015.8
20200530103551 58 4 0.0 0.0 0.00 0.25 0.01 88 1015.8
20200530103046 57 4 0.0 0.0 0.00 0.25 0.01 88 1015.9
20200530102541 57 4 0.0 0.0 0.00 0.25 0.01 88 1015.8
20200530102041 57 354 0.0 0.0 0.00 0.25 0.01 88 1015.7
20200530101602 57 132 0.0 0.0 0.00 0.25 0.01 89 1015.9
20200530101044 57 132 0.0 0.0 0.00 0.25 0.01 89 1015.7
20200530100539 58 132 0.0 0.0 0.00 0.25 0.01 88 1015.5
20200530100057 58 131 0.0 0.0 0.00 0.25 0.01 88 1015.5
20200530095542 58 131 0.0 0.0 0.00 0.25 0.01 88 1015.3
20200530095039 58 131 0.0 0.0 0.00 0.25 0.01 88 1015.4
20200530094611 58 98 0.0 0.0 0.00 0.25 0.01 88 1015.3
20200530094040 58 124 0.0 0.0 0.00 0.25 0.01 88 1015.3
20200530093541 58 98 0.0 0.0 0.00 0.25 0.01 88 1015.1
20200530093116 58 97 0.0 0.0 0.00 0.25 0.01 88 1015.2
20200530092540 58 97 0.0 0.0 0.00 0.25 0.01 88 1015.2
20200530092038 57 97 0.0 0.0 0.00 0.25 0.01 88 1015.1
20200530091539 58 97 0.0 0.0 0.00 0.25 0.01 88 1015.1
20200530091037 57 97 0.0 0.0 0.00 0.25 0.01 88 1015.0
20200530090547 57 93 0.0 0.0 0.01 0.25 0.01 88 1014.8
20200530090122 57 92 0.0 0.0 0.01 0.25 0.01 88 1014.7
20200530085536 57 342 0.0 0.0 0.01 0.25 0.01 88 1014.8
20200530085041 57 342 0.0 0.0 0.01 0.25 0.01 89 1014.8
20200530084608 57 342 0.0 0.0 0.01 0.25 0.01 89 1014.7
20200530084034 58 342 0.0 0.0 0.01 0.25 0.01 88 1014.7
20200530083533 58 342 0.0 2.6 0.01 0.25 0.01 88 1014.7
20200530083100 58 342 0.0 2.6 0.01 0.25 0.01 87 1014.8
20200530082541 58 337 0.0 1.7 0.01 0.25 0.01 88 1014.8
20200530082040 58 350 0.0 0.0 0.01 0.25 0.01 88 1014.8